Showing default

DUPLEX, 66906

Orbit data source: Space-Track

DUPLEX, 66906 is an American payload satellite in LEO that was delivered to the ISS. Payload-class satellites include a variety of spacecraft equipped with specific instruments for various scientific and technological missions. These include communications satellites like Starlink; space stations such as the ISS; scientific satellites like the Hubble; Earth observation satellites from companies like Planet Labs, Umbra, and HawkEye 360; GPS; miniature CubeSats for education and research; and military/defense satellites.

Loading next visibility...
Identifier
66906, 1998-067XS
Orbit
LEO
Country
Flag of USUS
Related business
Manufacturer
CUA
Mission
Operational Amateur Technology
Bus & Motor
CUBESAT 6U, Unknown motor
Mass
~10 kg wet, ~10 kg dry
Launch date (UTC)
1998-11-20 (27 years ago)
Launch vehicle
FALCON 9
Launch site
Tyuratam Missile And Space Complex (TTMTR)
Object type
Payload
Rocket body
Debris
Shape & HBR
Box, 1.1 m
Radar Cross Section
0.015 m²

Expand to show TLE details & history
Last TLE update: 11 hours ago

TLE from 11 hours ago
0 DUPLEX
1 66906U 98067XS  26035.81156706  .00031605  00000-0  48716-3 0  9991
2 66906  51.6288 233.6147 0001504  84.6110 275.5052 15.53878232 10017
Epoch: 2026-02-04T19:28Z
TLE epoch observation values (Epoch: 2026-02-04T19:28:39.393Z)
Latitude
-0.00005°
Longitude
166.47774°
Altitude
406.059 km
Speed
7.668 km/s
True Right ascension
15h 34m 27s
True Declination
0° 00' 00"
Sunlit
Object was in daylight at epoch
Visualization orbit readout
Latitude
Unknown
Longitude
Unknown
Altitude
Unknown
Speed
Unknown
Apparent Right ascension
Unknown
Apparent Declination
Unknown
Sunlit
N/A
Visualization observer readout
Local Sidereal Time
08:58:08
Azimuth
Unknown
Elevation
Unknown
Doppler factor
Unknown
Orbital elements
Apogee altitude
406.946 km
Perigee altitude
404.906 km
Semi-major axis
6,784.063 km
Eccentricity
0.00015
Inclination
51.6288°
RAAN
233.6147°
Arg. of periapsis
84.611°
True anomaly
275.48804°
Mean anomaly
275.5052°
Eccentric anomaly
275.49662°
Mean motion
3.88426 °/min
Orbital period
92.68 mins
BSTAR
0.00048716
Loading maneuver chart data...
Computing Atmospheric mass density...

Documentation

Showing up to 5 results
|